Theta_e
306 306 305 305 305 306 306 305 305 305 305 305 305 307 308 309 311 311 312 313 315 316 316 317 319 320 321 323 325 327 329 330 330 332 333 332 329 329 329 330 330 329
306 306 305 305 305 305 305 305 305 304 304 305 305 305 307 307 308 310 310 311 312 314 316 317 318 319 320 321 323 324 326 328 329 332 328 331 332 330 330 331 331 331
306 305 304 304 303 304 304 305 305 305 304 305 305 305 306 307 307 308 310 312 312 313 314 316 317 318 319 320 322 322 323 325 328 330 330 330 331 330 331 331 331 331
305 305 304 304 304 303 304 304 304 304 305 304 304 305 305 306 306 307 308 309 310 312 313 315 316 317 318 318 319 320 322 323 325 329 330 328 329 331 331 331 330 331
306 305 304 304 304 304 303 302 303 303 303 303 304 304 305 305 305 306 307 308 309 310 311 312 314 316 317 318 318 318 320 322 323 325 327 328 328 329 330 330 329 328
306 305 304 303 303 303 302 302 302 303 303 303 303 304 304 304 304 304 305 306 307 308 309 310 311 314 316 317 317 317 318 320 322 323 324 325 328 329 330 331 330 328
305 304 303 303 303 303 302 302 303 303 303 303 303 303 304 304 304 304 305 305 306 306 308 309 310 312 314 316 316 316 317 318 320 322 322 323 325 327 328 328 329 327
305 304 303 303 302 302 302 302 302 302 303 303 302 303 303 303 303 304 304 304 305 305 306 307 308 310 313 314 314 314 315 316 318 319 321 322 323 324 326 328 328 327
305 304 303 302 302 302 302 302 302 302 303 302 302 302 303 303 303 303 303 303 303 304 305 306 307 308 311 313 314 314 314 315 316 317 318 320 321 323 324 326 327 326
304 303 302 302 302 302 302 302 302 302 302 302 302 302 302 303 303 303 303 303 303 303 304 305 305 307 309 311 313 315 315 314 314 316 317 319 320 322 323 325 325 326
304 303 302 302 302 302 302 302 302 302 302 302 301 301 301 301 302 303 302 302 302 302 303 303 304 306 307 309 312 314 315 315 315 315 316 317 319 321 320 324 325 326
303 302 302 302 302 302 302 302 302 301 302 302 301 300 300 301 300 301 301 301 301 302 302 303 304 305 306 307 310 313 315 316 316 315 315 316 318 320 322 323 324 325
302 302 302 302 302 302 302 301 301 301 301 300 301 300 300 299 300 299 300 300 300 301 301 302 303 304 304 305 307 310 313 315 316 316 316 316 318 319 322 322 324 325
302 302 302 302 302 302 302 302 301 301 300 300 300 299 299 299 298 298 299 299 299 300 300 301 302 302 303 304 306 308 311 313 314 314 315 316 317 318 321 322 323 325
302 302 302 302 302 301 301 301 300 300 299 299 299 299 299 299 299 299 298 298 298 298 299 300 300 301 302 303 304 306 309 312 314 314 314 315 316 318 320 322 323 325
301 301 301 301 301 300 300 299 299 298 298 298 298 298 298 298 298 298 298 297 297 298 298 299 299 301 300 299 300 305 308 310 313 315 314 315 315 317 319 322 323 324
301 301 301 300 300 299 299 298 298 297 297 297 297 297 297 297 297 296 296 297 297 297 297 298 299 300 298 296 297 298 304 309 313 314 315 315 315 316 318 320 322 323
300 300 299 299 298 298 298 298 297 297 296 296 296 296 296 297 296 296 296 296 297 297 297 298 298 297 295 296 296 297 299 306 310 314 315 315 315 316 317 320 321 323
300 299 298 298 297 297 297 297 296 296 295 295 295 296 296 295 295 295 295 296 296 296 297 298 298 297 295 296 296 296 297 300 307 311 315 316 317 317 318 319 321 322
299 298 297 297 297 297 296 296 296 295 295 295 295 295 294 294 294 294 295 295 295 296 296 297 298 297 295 296 296 296 296 298 306 308 313 316 317 317 319 320 321 321
298 297 297 296 296 296 295 295 295 295 294 294 293 293 292 292 293 293 294 295 295 296 297 297 298 296 295 296 296 296 296 297 307 308 312 316 317 318 319 320 321 321
298 297 296 296 295 295 295 294 293 293 292 292 292 292 292 292 293 293 293 294 295 296 296 297 299 296 296 296 296 296 296 303 307 308 311 315 316 317 319 320 321 322
298 296 295 295 295 294 293 292 291 291 292 292 291 291 291 291 292 292 293 294 294 295 296 297 299 299 296 296 296 296 297 304 306 308 311 315 315 317 318 319 320 321
298 297 295 295 294 293 292 291 291 291 291 292 291 290 290 291 292 292 293 294 295 295 296 297 300 301 298 297 296 296 299 305 307 309 311 314 314 316 317 318 318 310
298 297 296 295 294 292 292 290 290 290 291 291 291 290 290 291 292 292 293 295 296 296 297 297 299 301 300 297 296 296 299 307 308 310 311 311 312 313 315 315 316 309
298 297 296 295 294 293 292 291 291 290 290 290 290 290 290 291 292 293 294 296 297 298 298 299 300 303 306 298 297 297 297 306 309 309 309 310 311 309 306 306 310 310
Wind_Speed
4 5 5 6 6 7 8 9 9 10 10 10 10 10 10 10 10 10 10 10 11 11 12 12 11 10 9 10 11 11 10 11 11 12 15 14 14 16 15 16 15 14
4 5 5 6 6 7 7 8 10 10 11 11 11 11 11 11 11 11 11 11 11 11 11 12 12 11 12 10 10 10 11 10 11 10 13 17 13 15 17 18 17 14
4 5 6 7 7 9 9 9 10 10 11 11 12 11 11 10 11 11 11 11 11 12 12 11 12 12 12 11 10 10 10 12 11 10 13 15 14 14 15 14 14 16
4 4 6 7 8 9 9 10 10 10 11 11 11 11 11 11 12 12 12 12 12 12 12 12 12 12 12 12 11 10 11 12 12 11 11 12 16 15 13 12 15 12
4 4 5 7 7 8 9 10 11 11 12 12 12 12 11 12 12 12 11 11 11 12 12 13 12 12 13 12 13 12 11 11 12 12 11 10 12 13 14 15 15 15
5 5 6 7 8 9 9 10 11 11 12 13 13 12 12 13 12 13 13 12 11 12 12 12 12 12 12 13 13 12 12 12 11 13 14 13 11 13 13 14 15 15
5 7 8 8 9 9 11 11 11 11 11 12 12 13 12 13 13 14 13 13 14 13 13 13 14 14 12 12 13 13 12 13 13 14 15 14 13 15 15 19 20 19
7 8 8 8 10 11 12 12 11 11 11 12 13 14 13 14 14 13 13 14 14 14 14 14 15 15 14 12 13 14 15 12 13 15 15 15 14 15 14 13 17 17
7 8 9 10 11 11 12 12 12 12 12 12 13 13 14 14 14 14 14 14 14 14 15 15 15 15 15 15 14 15 15 14 14 15 16 16 15 15 15 14 15 17
8 9 10 11 11 11 12 12 12 12 13 13 14 13 14 14 15 15 16 16 16 16 16 16 16 15 15 16 17 16 17 17 16 16 17 17 16 16 16 16 17 16
8 9 11 12 12 12 13 14 14 13 13 14 14 15 15 15 15 15 16 17 16 17 17 16 16 16 16 17 16 16 17 17 17 17 17 18 18 17 16 17 17 16
8 10 11 12 13 13 14 15 15 15 14 14 14 16 16 15 16 15 15 17 16 16 16 17 16 17 17 17 17 17 16 17 17 17 17 18 18 18 18 17 17 20
9 11 11 12 13 13 14 15 14 14 15 16 15 16 16 16 16 17 17 17 17 16 17 17 17 17 17 17 18 18 18 17 17 18 18 17 18 19 18 18 18 19
11 11 12 13 13 14 15 15 15 14 15 16 16 17 17 17 18 18 17 17 17 18 17 16 17 17 17 18 18 18 18 18 18 18 18 17 18 19 19 18 19 19
11 11 11 13 14 15 15 16 15 15 16 16 16 17 16 17 18 18 19 19 19 19 18 17 16 16 15 16 17 19 19 19 19 19 19 18 18 20 19 19 18 18
11 11 12 13 14 14 15 16 16 16 16 17 17 18 18 18 18 19 19 20 20 20 20 17 16 15 17 20 19 16 17 17 17 17 19 17 18 19 19 20 19 17
11 11 12 14 14 15 16 17 17 16 17 18 18 18 19 19 18 20 19 18 19 20 20 19 17 15 21 20 21 23 18 17 17 17 17 17 17 19 18 19 18 18
11 12 14 15 15 16 17 17 17 18 18 19 18 20 19 18 20 20 19 18 17 19 20 20 20 20 20 21 21 22 21 19 19 16 16 17 17 19 18 17 18 17
11 13 14 15 16 18 17 17 17 17 18 19 19 18 18 19 20 20 20 19 18 19 20 20 19 20 21 22 21 21 23 21 18 20 17 17 18 19 19 18 16 15
11 12 14 16 17 17 17 17 18 18 18 17 17 18 18 19 19 20 19 20 19 20 19 19 20 20 22 23 23 24 24 21 19 20 20 18 19 18 17 18 18 17
11 12 15 17 18 17 17 17 17 18 18 17 17 17 17 17 17 18 18 19 19 19 19 19 17 20 21 23 23 25 24 21 18 19 19 19 20 18 18 19 19 18
10 12 15 17 17 17 17 18 18 18 19 18 16 16 16 16 17 17 19 19 19 19 18 19 18 21 22 23 24 24 25 16 18 19 21 19 19 18 18 18 17 17
10 12 15 17 17 16 17 17 18 19 18 16 17 16 17 17 17 17 17 18 19 19 19 18 17 21 23 24 24 24 21 15 16 16 19 19 19 15 14 15 16 18
10 12 14 17 17 16 17 17 18 17 17 16 16 17 17 18 17 16 17 17 19 19 17 16 16 20 23 23 24 24 21 16 16 16 17 15 15 15 12 15 16 17
10 11 13 15 16 16 16 18 17 17 17 16 17 16 16 15 15 15 17 17 18 18 20 21 17 18 20 21 22 23 20 15 16 15 16 14 12 11 7 7 10 12
9 11 12 15 15 16 16 16 17 17 18 17 16 13 14 14 14 13 16 17 16 15 15 17 17 17 17 19 22 24 26 18 14 15 16 14 12 9 6 4 6 6
Wind_Direction
302 307 301 300 298 298 301 304 303 301 300 300 296 296 294 294 289 281 275 274 272 271 269 264 262 261 261 260 266 266 264 257 243 222 211 206 212 212 212 209 209 207
305 303 300 296 293 294 295 296 297 296 296 294 292 291 289 286 285 281 273 266 262 257 261 263 259 257 256 258 259 263 262 254 247 236 225 216 211 212 215 212 210 206
300 302 294 290 291 292 292 292 291 293 292 291 291 288 287 286 284 281 277 272 267 266 262 259 259 255 253 254 256 258 260 260 250 239 236 222 210 211 213 212 211 207
288 290 292 288 288 290 293 291 290 291 291 290 288 289 287 287 284 281 278 273 267 262 262 262 260 258 255 252 251 253 254 257 257 247 235 233 222 213 209 204 211 208
275 287 287 290 288 288 289 287 287 288 288 288 288 286 283 282 283 282 277 272 268 264 258 258 260 262 258 253 248 249 249 253 254 252 246 240 233 219 211 210 210 208
268 283 292 292 292 291 289 288 286 284 284 285 285 285 281 280 279 278 276 274 270 265 264 258 255 254 252 253 249 245 245 248 249 249 248 243 238 229 213 202 204 205
267 294 296 293 288 287 288 287 286 283 282 282 285 282 281 278 276 273 273 271 268 266 265 261 256 254 253 252 251 245 241 244 248 248 247 245 238 238 232 217 210 209
278 294 297 292 289 289 288 288 286 285 283 282 280 281 279 276 273 272 270 270 268 264 261 259 258 256 251 248 249 247 241 239 241 243 247 247 241 239 233 228 216 208
287 295 296 292 289 288 288 288 288 287 286 282 280 279 278 275 273 270 268 265 263 261 259 258 256 254 252 248 246 244 240 236 236 240 242 243 240 237 235 230 225 215
290 294 294 292 289 289 289 289 289 289 287 283 280 279 278 276 273 270 266 263 260 258 256 255 254 252 250 249 248 247 243 238 237 238 239 241 241 239 234 231 227 221
290 294 295 294 292 293 292 292 292 290 288 284 282 279 277 275 274 271 268 264 260 258 256 253 252 252 250 248 245 243 244 239 235 236 238 239 239 239 237 232 228 226
289 296 296 297 297 296 295 295 295 292 289 286 282 281 279 276 274 272 269 267 263 260 257 255 253 251 250 250 248 244 240 240 237 235 237 239 238 238 236 232 228 226
292 299 299 301 301 299 298 297 294 292 291 287 284 281 278 275 273 271 269 267 264 262 258 255 253 251 250 248 248 247 243 237 233 234 234 237 238 237 235 234 229 225
305 306 304 303 302 301 300 298 294 291 292 288 284 280 276 273 273 271 269 266 265 262 259 256 252 250 248 247 245 244 244 239 233 232 232 235 236 235 234 232 229 224
311 308 306 303 303 304 302 300 297 295 293 288 284 281 278 276 273 272 271 268 264 260 258 254 251 247 245 242 241 241 241 240 235 231 228 229 234 234 232 230 228 226
310 307 307 309 309 308 306 303 300 297 294 290 286 282 280 278 276 273 271 268 265 261 258 254 249 246 241 236 237 239 238 238 235 230 226 226 230 232 232 230 226 224
310 314 315 317 314 309 306 304 300 297 292 289 286 282 280 279 275 274 270 265 262 260 257 254 250 246 240 234 229 233 244 246 237 230 224 222 225 230 231 229 226 223
319 321 322 319 315 311 307 305 301 298 295 291 287 282 278 277 276 272 270 267 263 260 257 253 252 246 241 236 228 225 227 238 244 237 225 222 222 226 228 228 224 222
322 325 323 318 314 311 309 306 301 296 292 289 286 285 282 279 278 275 272 268 263 261 257 253 252 246 239 235 230 225 224 228 239 242 232 223 220 222 225 225 223 217
327 324 321 320 317 314 310 307 304 301 299 295 292 289 284 280 276 273 271 268 264 260 258 254 252 249 239 233 228 226 225 224 231 236 237 227 221 220 222 223 220 217
327 324 325 324 321 317 312 309 308 305 301 298 294 289 285 279 277 275 270 268 263 259 257 253 250 246 240 235 227 222 222 222 226 230 234 229 225 222 224 226 221 216
325 323 328 328 325 319 315 312 310 305 301 298 294 289 282 279 276 272 270 267 263 259 256 252 251 244 236 231 225 220 218 219 224 228 230 228 224 223 224 224 220 207
325 323 326 331 329 321 318 316 312 306 301 299 296 293 287 280 275 270 267 265 262 257 252 252 251 247 237 227 221 216 213 215 219 225 228 224 221 219 218 217 212 207
323 323 325 332 331 324 320 316 312 307 305 304 300 298 293 289 282 275 269 262 258 255 250 250 251 246 233 221 217 212 209 212 217 223 224 221 216 211 207 211 207 190
314 318 324 331 331 325 322 317 313 314 313 310 306 299 291 289 284 277 270 260 253 250 246 245 249 253 239 218 212 209 207 210 215 219 218 212 201 197 183 186 198 188
311 316 326 332 330 325 321 320 321 321 319 315 309 300 297 296 292 293 284 263 251 245 244 240 242 244 240 218 210 208 205 207 211 214 212 198 187 161 149 133 172 160